[[{"header":{"parameterUnit":"m.s-1","parameterCategory":1,"la1":30.2991,"la2":30.254,"lo1":-89.0895,"lo2":-89.0444,"dy":0.0017,"dx":0.0017,"nx":28,"ny":28,"refTime":"2023-08-13T09:00:00:Z","depth":0,"parameterNumber":2,"parameterNumberName":"U-component_of_WINDS"},"data":[0,0,0,0,0,0,0,0,0,0,0,0,0,0,0,0,0,0,0,0,0,0,0,0,0,0,0,0,0,0,0,0,0,0,0,0,0,0,0,0,0,0,0,0,0,0,0,0,0,0,0,0,0,0,0,0,0,0,1.1021,1.1021,0,1.1082,1.1082,1.1083,1.1092,1.1092,1.1091,1.1091,1.1157,1.1159,1.1162,0,0,0,0,0,0,0,0,0,0,0,0,0,1.0916,1.0918,1.1021,1.1021,1.1022,1.1082,1.1082,1.1083,1.1092,1.1092,1.1091,1.109,1.1156,1.1159,1.1162,0,0,0,0,0,0,0,0,0,0,0,0,0,1.0968,1.0919,1.1021,1.1034,1.1036,1.1081,1.1082,1.1083,1.1093,1.1092,1.1091,1.109,1.1155,1.1159,1.1162,1.12,0,0,1.1173,1.1174,0,0,0,0,0,0,0,0,1.0965,1.0972,1.1031,1.1033,1.1035,1.1078,1.107,1.1123,1.1093,1.1071,1.1091,1.109,1.1132,1.1137,1.1151,1.1203,1.1206,1.1173,1.1175,1.1177,1.1178,0,0,0,0,0,0,0,1.0961,1.0969,1.1045,1.1032,1.1035,1.1038,1.1045,1.108,1.1106,1.1073,1.1074,1.1081,1.1133,1.1147,1.1152,1.1207,1.1173,1.1176,1.1178,1.1179,1.1294,1.1295,0,0,0,0,0,0,1.0955,1.0966,1.1043,1.1047,1.0997,1.1041,1.1048,1.1065,1.1105,1.111,1.1081,1.1081,1.1142,1.1148,1.1155,1.1201,1.1177,1.118,1.1182,1.1293,1.1294,1.1295,0,0,0,0,0,0,1.0953,1.0962,1.1041,1.1007,1.1017,1.1043,1.1063,1.1067,1.1081,1.1111,1.1116,1.1091,1.1141,1.115,1.1188,1.1204,1.1181,1.1184,1.1292,1.1293,1.1295,1.1295,0,0,0,0,0,0,1.095,1.0961,1.0974,1.1007,1.1019,1.1072,1.1064,1.1069,1.1087,1.1087,1.1122,1.1127,1.1141,1.1183,1.1192,1.1208,1.1187,1.129,1.1292,1.1294,1.1294,1.1296,1.1298,0,0,0,0,0,1.0946,1.0973,1.0975,1.0984,1.1036,1.1073,1.108,1.1095,1.1088,1.1103,1.1122,1.1126,1.1201,1.1187,1.1197,1.1214,1.1289,1.1292,1.1294,1.1293,1.1296,1.1298,0,0,0,0,0,0,1.0943,1.0978,1.098,1.1018,1.1042,1.1074,1.1093,1.1098,1.1125,1.1124,1.1143,1.1151,1.1188,1.1205,1.119,1.1253,1.1245,1.1249,1.124,1.1244,1.1246,1.1241,1.119,0,0,0,0,0,1.0947,1.0972,1.1002,1.1033,1.1044,1.1067,1.1083,1.1093,1.1119,1.113,1.1152,1.1178,1.1208,1.1227,1.1255,1.1296,1.1304,1.1313,1.1316,1.1317,1.1321,1.1344,1.1348,1.1302,1.1302,1.1302,0,0,1.0955,1.0977,1.0992,1.1033,1.1052,1.108,1.1075,1.1104,1.1125,1.1134,1.1172,1.1189,1.122,1.1259,1.1278,1.1275,1.1335,1.132,1.1321,1.1324,1.1346,1.1351,1.1355,1.1304,1.1304,1.1303,0,0,1.0983,1.1002,1.103,1.105,1.1079,1.1094,1.1101,1.1132,1.1143,1.1181,1.1188,1.1214,1.1264,1.1286,1.1303,1.134,1.1345,1.1349,1.1362,1.1384,1.1387,1.139,1.1403,1.1408,1.1353,1.1353,1.1353,0,1.099,1.103,1.1044,1.1073,1.1091,1.1099,1.1128,1.1147,1.1185,1.1198,1.1193,1.1256,1.1277,1.1322,1.1331,1.1345,1.1354,1.1345,1.1385,1.1389,1.1392,1.1405,1.1409,1.1353,1.1353,1.1353,1.1353,0,1.1037,1.1065,1.1084,1.1119,1.1139,1.1168,1.1187,1.1206,1.1214,1.1229,1.1268,1.1293,1.1327,1.1339,1.1347,1.1385,1.1382,1.1381,1.1373,1.1396,1.1408,1.1413,1.1353,1.1353,1.1353,1.1353,0,0,1.1065,1.1107,1.1114,1.113,1.1163,1.1186,1.1215,1.1247,1.1263,1.1289,1.1315,1.1357,1.1356,1.1376,1.1387,1.1406,1.1434,1.1403,1.1404,1.1408,1.1477,1.1477,1.1482,1.1437,1.1438,1.1439,1.1474,0,1.1097,1.1148,1.1162,1.1206,1.1232,1.1241,1.1267,1.129,1.1306,1.1331,1.1349,1.1378,1.1375,1.1387,1.1406,1.1426,1.1448,1.1424,1.1462,1.1463,1.1453,1.1488,1.1489,1.1521,1.1479,1.148,1.148,0,1.1142,1.1167,1.1213,1.1243,1.1255,1.1277,1.1308,1.1331,1.1359,1.1369,1.1391,1.14,1.1432,1.1422,1.1467,1.145,1.1467,1.1479,1.148,1.1484,1.1473,1.1493,1.1531,1.1536,1.1488,1.1487,1.1487,0,1.1157,1.1203,1.1237,1.125,1.1286,1.1302,1.1318,1.1344,1.1362,1.139,1.1402,1.1433,1.145,1.1474,1.1491,1.1483,1.1535,1.1526,1.1544,1.1544,1.1555,1.1554,1.1595,1.1566,1.1566,1.1565,1.1565,0,1.1192,1.1219,1.1244,1.1265,1.1296,1.1313,1.1344,1.136,1.1384,1.1409,1.1419,1.1442,1.1464,1.149,1.1504,1.1539,1.1547,1.1556,1.1559,1.1555,1.1554,1.1566,1.1564,1.1567,1.1566,1.1566,1.1566,0,1.1214,1.1232,1.1269,1.1299,1.1308,1.133,1.1356,1.1377,1.1393,1.1424,1.1432,1.1457,1.1488,1.1508,1.1549,1.1558,1.1596,1.1599,1.1586,1.1588,1.1604,1.1602,1.1655,1.1663,1.1628,1.1628,1.1629,0,1.1235,1.1256,1.1289,1.1305,1.1321,1.1348,1.1366,1.1383,1.1402,1.1435,1.1452,1.1484,1.151,1.156,1.1582,1.1613,1.1617,1.1633,1.1622,1.1616,1.1617,1.1615,1.1617,1.1635,1.1636,1.1636,1.1636,0,1.1269,1.1277,1.1302,1.1331,1.1352,1.1376,1.14,1.1414,1.1435,1.1456,1.1487,1.1508,1.1548,1.158,1.1613,1.163,1.1637,1.1639,1.1645,1.1641,1.1632,1.1636,1.1591,1.1638,1.1638,1.1638,1.1638,1.1638,1.1291,1.131,1.1336,1.1365,1.1384,1.1406,1.1427,1.1445,1.1471,1.1504,1.1513,1.1546,1.1574,1.1618,1.1637,1.1663,1.1661,1.167,1.1672,1.1673,1.1673,1.1628,1.1669,1.1669,1.1669,1.1669,1.1669,0,1.1326,1.1343,1.1368,1.1401,1.1423,1.1427,1.1453,1.1472,1.15,1.1525,1.155,1.1587,1.1617,1.1642,1.1673,1.169,1.1694,1.1698,1.1697,1.1701,1.1674,1.1665,1.1694,1.1694,1.1694,1.1694,1.1694,1.1694,1.1346,1.1379,1.139,1.1433,1.145,1.1481,1.1496,1.1517,1.1536,1.1576,1.1601,1.1616,1.1641,1.1675,1.1703,1.171,1.1721,1.1724,1.1731,1.1705,1.1703,1.17,1.1692,1.1726,1.1726,1.1756,1.1756,1.1756]},{"header":{"parameterUnit":"m.s-1","parameterCategory":1,"la1":30.2991,"la2":30.254,"lo1":-89.0895,"lo2":-89.0444,"dy":0.0017,"dx":0.0017,"nx":28,"ny":28,"refTime":"2023-08-13T09:00:00:Z","depth":0,"parameterNumber":3,"parameterNumberName":"V-component_of_WINDS"},"data":[0,0,0,0,0,0,0,0,0,0,0,0,0,0,0,0,0,0,0,0,0,0,0,0,0,0,0,0,0,0,0,0,0,0,0,0,0,0,0,0,0,0,0,0,0,0,0,0,0,0,0,0,0,0,0,0,0,0,4.1552,4.1552,0,4.1567,4.1567,4.1567,4.158,4.158,4.158,4.158,4.1592,4.1592,4.1592,0,0,0,0,0,0,0,0,0,0,0,0,0,4.1531,4.1532,4.1552,4.1552,4.1553,4.1567,4.1567,4.1567,4.158,4.158,4.158,4.158,4.1592,4.1592,4.1592,0,0,0,0,0,0,0,0,0,0,0,0,0,4.1542,4.1532,4.1552,4.1561,4.1562,4.1567,4.1567,4.1567,4.158,4.158,4.158,4.158,4.1592,4.1592,4.1593,4.159,0,0,4.1593,4.1593,0,0,0,0,0,0,0,0,4.1542,4.1543,4.1559,4.156,4.1561,4.1572,4.1564,4.1575,4.158,4.1573,4.158,4.158,4.1585,4.1586,4.1588,4.159,4.1591,4.1593,4.1594,4.1594,4.1594,0,0,0,0,0,0,0,4.1541,4.1543,4.1558,4.1559,4.1561,4.1562,4.1564,4.1566,4.1577,4.1573,4.1574,4.1576,4.1585,4.1588,4.1588,4.1591,4.1593,4.1594,4.1594,4.1594,4.1589,4.1588,0,0,0,0,0,0,4.1539,4.1542,4.1557,4.1558,4.1552,4.1562,4.1565,4.1568,4.1577,4.1579,4.1576,4.1576,4.1587,4.1588,4.1589,4.1585,4.1594,4.1594,4.1594,4.1589,4.1589,4.1588,0,0,0,0,0,0,4.1539,4.1541,4.1557,4.155,4.1553,4.1563,4.1566,4.1568,4.157,4.1579,4.1581,4.1576,4.1587,4.1588,4.1589,4.1585,4.1594,4.1594,4.1589,4.1589,4.1588,4.1577,0,0,0,0,0,0,4.1538,4.154,4.1541,4.155,4.1553,4.1558,4.1566,4.1568,4.1571,4.1572,4.158,4.1582,4.1588,4.1588,4.1589,4.1586,4.1594,4.159,4.1589,4.1589,4.1578,4.1576,4.1575,0,0,0,0,0,4.1537,4.1537,4.1541,4.1542,4.1554,4.1558,4.1559,4.1567,4.1571,4.157,4.1575,4.1581,4.1585,4.1588,4.1589,4.1586,4.159,4.1589,4.1589,4.1578,4.1577,4.1575,0,0,0,0,0,0,4.1526,4.1538,4.1543,4.1545,4.1551,4.156,4.156,4.1565,4.1569,4.157,4.1578,4.158,4.1579,4.1582,4.1586,4.1582,4.1588,4.1588,4.158,4.1578,4.1577,4.1576,4.1595,0,0,0,0,0,4.1524,4.1528,4.1538,4.1539,4.1541,4.155,4.1552,4.1558,4.1563,4.1565,4.157,4.1574,4.1576,4.1578,4.158,4.1578,4.1579,4.1576,4.1574,4.1573,4.1573,4.157,4.1568,4.1586,4.1586,4.1586,0,0,4.152,4.1527,4.1529,4.1537,4.1542,4.1544,4.1552,4.1554,4.1555,4.1565,4.1566,4.157,4.1574,4.1573,4.1573,4.1576,4.1568,4.1572,4.1571,4.1571,4.1569,4.1567,4.1566,4.1586,4.1586,4.1586,0,0,4.1513,4.1519,4.152,4.1524,4.1531,4.1536,4.1536,4.1545,4.1548,4.1549,4.1555,4.1556,4.156,4.1563,4.1564,4.1555,4.156,4.1556,4.1548,4.1545,4.1544,4.1543,4.1538,4.1537,4.1555,4.1555,4.1555,0,4.1506,4.1511,4.152,4.1521,4.1524,4.1533,4.1532,4.1536,4.1543,4.1543,4.1547,4.1551,4.1555,4.1553,4.1551,4.1552,4.1551,4.1555,4.1544,4.1542,4.1541,4.1537,4.1536,4.1555,4.1555,4.1555,4.1555,0,4.1502,4.1505,4.1504,4.1511,4.1513,4.1514,4.1521,4.1522,4.1527,4.1531,4.153,4.1535,4.1538,4.1538,4.1542,4.1536,4.1538,4.1542,4.1549,4.1539,4.1535,4.1533,4.1554,4.1554,4.1554,4.1554,0,0,4.149,4.15,4.15,4.1502,4.1509,4.151,4.151,4.1513,4.1513,4.1517,4.1516,4.1518,4.1522,4.1524,4.1528,4.1525,4.1516,4.153,4.153,4.1526,4.1507,4.1503,4.1502,4.1519,4.1519,4.1518,4.1506,0,4.1484,4.1485,4.1492,4.1491,4.1493,4.15,4.1499,4.1502,4.1506,4.1506,4.1509,4.151,4.1516,4.1517,4.1514,4.1518,4.1512,4.1519,4.1517,4.1516,4.1515,4.15,4.1496,4.1485,4.1505,4.1505,4.1505,0,4.1477,4.148,4.148,4.1485,4.1486,4.1485,4.1487,4.1488,4.1491,4.1493,4.1494,4.1499,4.1497,4.1503,4.1499,4.1504,4.1503,4.1504,4.1504,4.1504,4.151,4.1498,4.1482,4.148,4.1503,4.1503,4.1503,0,4.1467,4.1471,4.1471,4.1473,4.1479,4.1478,4.148,4.1483,4.1484,4.1485,4.1485,4.1486,4.1486,4.1486,4.1489,4.1493,4.1485,4.1491,4.1485,4.1485,4.1483,4.1483,4.1466,4.1484,4.1484,4.1484,4.1484,0,4.146,4.1459,4.1466,4.1466,4.1464,4.147,4.1468,4.1471,4.1473,4.1472,4.1478,4.1476,4.1482,4.148,4.1483,4.1478,4.1479,4.1479,4.148,4.1479,4.1479,4.1478,4.1479,4.1483,4.1483,4.1483,4.1483,0,4.1449,4.1454,4.1454,4.1459,4.146,4.1458,4.1462,4.1461,4.1464,4.1462,4.1462,4.1466,4.1465,4.1468,4.1467,4.1469,4.1462,4.1465,4.1462,4.1462,4.1456,4.1456,4.1437,4.1434,4.1454,4.1454,4.1454,0,4.1444,4.1443,4.1447,4.1447,4.1449,4.145,4.145,4.1455,4.1455,4.1456,4.1454,4.1453,4.1453,4.1449,4.1451,4.145,4.1451,4.1445,4.1451,4.1449,4.145,4.145,4.1449,4.1443,4.1443,4.1443,4.1443,0,4.1433,4.1435,4.1436,4.1437,4.1437,4.1438,4.144,4.1439,4.1444,4.1443,4.1442,4.1441,4.1439,4.1437,4.1436,4.1436,4.144,4.1441,4.1439,4.1437,4.1435,4.1435,4.1457,4.1441,4.1441,4.1441,4.1442,4.1442,4.1425,4.1424,4.1426,4.1426,4.1427,4.1428,4.1426,4.1428,4.1428,4.1427,4.1429,4.1427,4.1427,4.1425,4.1425,4.1422,4.1425,4.1423,4.1422,4.1421,4.142,4.1436,4.1422,4.1422,4.1422,4.1422,4.1422,0,4.1414,4.1415,4.1415,4.1416,4.1416,4.1419,4.142,4.1419,4.1417,4.1417,4.1415,4.1412,4.141,4.1411,4.1408,4.1405,4.1406,4.1404,4.1404,4.1404,4.1418,4.1419,4.1403,4.1403,4.1403,4.1403,4.1403,4.1403,4.1408,4.1406,4.1408,4.1405,4.1406,4.1404,4.1404,4.1403,4.1403,4.14,4.1398,4.1399,4.1398,4.1395,4.1392,4.1392,4.139,4.1387,4.1388,4.1401,4.1403,4.1405,4.1406,4.1387,4.1387,4.1374,4.1374,4.1373]}]]